Location: Belfast
(54.5830°N, 5.9330°W)
Time: 13:00:58
(UTC+00:00)

ISS - Pass Details

Date: 08 December 2017
Orbit: 402 x 406 km, 51.6° (Epoch: 16 December)

Event Time Altitude Azimuth Distance (km) Brightness Sun altitude
Rises 18:06:42 0° 266° (W) 2,332 1.6 -17.1°
Reaches altitude 10° 18:08:49 10° 261° (W) 1,470 0.3 -17.4°
Maximum altitude 18:12:01 49° 185° (S) 535 -3.2 -17.9°
Enters shadow 18:12:50 38° 140° (SE) 639 -3.1 -18.0°
